Location: Bukit Lungun
(2.6833°N, 113.9667°E)
Time: 10:50:02
(UTC+00:00)

CZ-4C R/B - Pass Details

Date: 02 March 2021
Orbit: 613 x 1388 km, 63.4° (Epoch: 20 April)

Event Time Altitude Azimuth Distance (km) Brightness Sun altitude
Exits shadow 21:19:30 33° 321° (NW) 1,047 2.3 -19.3°
Drops below altitude 10° 21:22:47 10° 2° (N) 2,039 4.2 -18.5°
Sets 21:25:18 0° 10° (N) 3,018 5.1 -17.9°
